Back to catalog

STARLINK-5590

AliveCommunicationsVLEO
NORAD 55371·PAYLOAD·🇺🇸 United States

Launched Jan 26, 2023 from Cape Canaveral Space Force Station

Loading…

Next Passes (next 24 hours)

TLE

FreshSource: CelesTrak SupGP

Epoch: Sep 14, 2026, 14:40 UTC

1 55371C 23013AS  26257.61159722  .00045348  00000+0  16428-2 0  2578
2 55371  43.0011 334.2894 0001443 276.1315 315.2703 15.27550422    17

Track STARLINK-5590 in real time with AllMySat

Download on the App Store